Location: Rounton
(54.4000°N, 1.3500°W)
Time: 22:56:49
(UTC+00:00)

Explorer 7 - Pass Details

Date: 01 December 2021
Orbit: 483 x 674 km, 50.3° (Epoch: 17 January)

Event Time Altitude Azimuth Distance (km) Brightness Sun altitude
Rises 09:59:58 0° 264° (W) 2,679 10.1 9.9°
Reaches altitude 10° 10:02:18 10° 258° (WSW) 1,758 9.3 10.0°
Maximum altitude 10:06:05 45° 185° (S) 696 8.2 10.3°
Drops below altitude 10° 10:09:44 10° 112° (ESE) 1,686 10.1 10.5°
Sets 10:11:55 0° 106° (ESE) 2,554 10.9 10.6°
